Regional Weather Roundup
Issued by NWS

Home | Current Version | Previous Version | Graphics & Text | Print | Product List | Glossary On
Versions: 1 2 3 4 5 6 7 8 9 10 11 12 13 14 15 16 17 18 19 20 21 22 23 24 25 26 27
000
ASUS45 KSLC 260610
RWRUT

UTAH REGIONAL WEATHER ROUNDUP
NATIONAL WEATHER SERVICE SALT LAKE CITY UT
1200 AM MDT THU MAY 26 2016

UTZ001>011-023>025-260700-

NORTHERN UTAH

CITY           SKY/WX    TMP DP  RH WIND       PRES   REMARKS
BRIGHAM CITY     N/A     49  41  75 NW3       30.05S
HILL AFB       PTCLDY    50  41  71 E8        30.04F
LOGAN          CLEAR     43  40  89 CALM      30.07R
OGDEN          CLEAR     53  43  68 CALM      30.03F
PROVO AIRPORT  CLOUDY    55  41  58 NW10      30.03S
SALT LAKE CITY MOCLDY    57  46  66 NW6       30.03F
VERNAL         CLEAR     51  34  52 N6        30.02S
WENDOVER       PTCLDY    55  36  47 NW13G21   30.05S
HEBER CITY     MOCLDY    43  34  70 CALM      30.05S
WEST JORDAN    MOCLDY    52  43  71 NW3       30.05S

$$

UTZ012>022-026-027-260700-

SOUTHERN/CENTRAL UTAH

CITY           SKY/WX    TMP DP  RH WIND       PRES   REMARKS
BLANDING       PTCLDY    56  18  23 SW7       30.04F
BRYCE CANYON   CLOUDY    49  18  29 W10       30.07F
CEDAR CITY     CLOUDY    50  26  39 CALM      30.02S
DELTA          CLOUDY    54  37  54 E7        30.04R
MILFORD        PTCLDY    51  36  56 N8        30.02S
MOAB/CYNLANDS  MOCLDY    56  12  17 W6        29.90R
PRICE          MOCLDY    52  25  35 NW9       30.00S
ST GEORGE      MOCLDY    72  25  17 S14       29.94R
KANAB          MOCLDY    61  28  29 CALM      30.02R

$$

REGIONAL REPORTS     COLORADO/ARIZONA

CITY           SKY/WX    TMP DP  RH WIND       PRES   REMARKS
CRAIG, CO      CLEAR     43  32  65 SW9       30.07F
GRAND JUNCTION CLOUDY    53  23  31 E5        29.94S
RIFLE          CLEAR     49  25  39 SE3       30.00S
MONTROSE       PTCLDY    57  22  25 SE12      30.00S
CORTEZ         CLOUDY    47  25  42 E8        30.01S
PAGE, AZ       MOCLDY    68  21  16 SW3       29.91F
GRAND CANYON   CLEAR     41  19  41 CALM      30.07S
KINGMAN        PTCLDY    59  50  73 MISG      29.98R
FLAGSTAFF      PTCLDY    37  20  50 CALM      30.07F

$$

REGIONAL REPORTS    NEVADA/IDAHO/WYOMING

CITY           SKY/WX    TMP DP  RH WIND       PRES   REMARKS
LAS VEGAS, NV  PTCLDY    68  36  30 W8        29.88S
ELY            CLOUDY    42  38  85 N12       30.13F
ELKO           PTCLDY    45  41  86 CALM      30.10S
POCATELLO, ID  CLEAR     46  40  79 CALM      30.05S
BURLEY         CLEAR     50  41  71 SW12      30.03S
EVANSTON, WY   CLOUDY    41  34  76 S7        30.13R
ROCK SPRINGS   CLOUDY    41  35  79 W13       30.09F
KEMMERER         N/A     37  34  87 CALM      30.13S

$$




USA.gov is the U.S. government's official web portal to all federal, state and local government web resources and services.